Flag for Israel Weather past 2 weeks in Ra'anana, Israel

Now
59 °F

Heavy rain. Scattered clouds.


Feels Like: 58 °F
Forecast: 55 / 67 °F
Wind: 8 mph from South

Location: Dov Airport

Current Time: Dec 28, 2014 at 8:07:41 AM

Latest Report: Dec 28, 2014 at 6:50 AM


Visibility: 6 mi

Pressure: 30.07 "Hg

Humidity: 82%

Dew point: 54 °F

Location of Ra'ananaLocation

Historic Weather in Ra'anana — Graph

°F

Ra'anana temperature yesterday

Maximum temperature yesterday: 68 °F (at 10:50 AM)
Minimum temperature yesterday: 57 °F (at 6:00 AM)
Average temperature yesterday: 63 °F

Past Weeks' High & Low Weather Summary

 TemperatureHumidityPressure
High72 °F (Dec 17, 11:50 AM)88% (Dec 14, 5:50 AM)30.27 "Hg (Dec 14, 5:50 AM)
Low54 °F (Dec 25, 6:50 AM)29% (Dec 25, 1:50 PM)29.95 "Hg (Dec 26, 12:50 PM)
Average63 °F63%30.09 "Hg
* Reported Dec 13 6:04 AM — Dec 28 6:50 AM, Ra'anana, Weather by CustomWeather, © 2014

Note: Actual official high and low records may vary slightly from our data, if they occured in-between our weather recording intervals... More about our weather records

Advertising

Ra'anana weather history for previous 24 hours

 ConditionsComfort  
Time TempWeatherWind HumidityBarometerVisibility
6:50 AM
Dec 28
59 °FHeavy rain. Scattered clouds.8 mph82%30.07 "Hg6 mi
5:50 AM61 °FClear.6 mph77%30.04 "Hg10 mi
10:50 PM
Dec 27
59 °FClear.6 mph82%30.01 "Hg10 mi
9:50 PM61 °FPassing clouds.5 mph83%30.01 "HgN/A
8:50 PM61 °FPassing clouds.3 mph83%29.98 "HgN/A
7:50 PM63 °FPassing clouds.No wind77%29.98 "HgN/A
6:50 PM63 °FPassing clouds.No wind77%29.98 "HgN/A
5:50 PM64 °FPassing clouds.7 mph73%29.98 "HgN/A
4:50 PM66 °FPassing clouds.7 mph73%29.98 "HgN/A
3:50 PM66 °FPassing clouds.9 mph73%29.95 "HgN/A
2:50 PM68 °FPassing clouds.12 mph69%29.98 "HgN/A
1:50 PM68 °FScattered clouds.13 mph69%29.98 "HgN/A
12:50 PM68 °FScattered clouds.13 mph64%29.98 "HgN/A
11:50 AM68 °FScattered clouds.12 mph64%29.98 "HgN/A
10:50 AM68 °FPassing clouds.6 mph60%30.01 "HgN/A
9:50 AM64 °FPassing clouds.8 mph68%30.04 "HgN/A
8:50 AM61 °FScattered clouds.8 mph72%30.04 "HgN/A
Weather by CustomWeather, © 2014

See weather overviewHow to use our weather pages